When you browse on this site, cookies collect data to enhance your experience and personalize the content and advertising you see.
Visit our Privacy Policy to learn more. By continuing to use the site, you agree to this use of cookies and data.
  • In Portugal
  • List of Countries
  • For 7 days
  • Water Temperature
  • Satellite Maps
  • Weather Map
  • Weather Widgets
  • user-avatar
    Login

    Hourly Weather Mauda

    Today, 21 March, Thursday

    Time Temperature Precipitation Wind Pressure Humidity
    00:00 +2°C° 0 mm 6 mps 746 mmHg 75%
    01:00 +2°C° 0 mm 6 mps 746 mmHg 82%
    02:00 +3°C° 0 mm 4 mps 746 mmHg 89%
    03:00 +3°C° 0 mm 4 mps 746 mmHg 91%
    04:00 +3°C° 0 mm 4 mps 746 mmHg 92%
    05:00 +1°C° 0 mm 4 mps 746 mmHg 94%
    06:00 +3°C° 0 mm 4 mps 746 mmHg 92%
    07:00 +3°C° 0 mm 4 mps 747 mmHg 91%
    08:00 +3°C° 0 mm 4 mps 747 mmHg 88%
    09:00 +4°C° 0 mm 4 mps 747 mmHg 83%
    10:00 +5°C° 0 mm 5 mps 747 mmHg 78%
    11:00 +5°C° 0 mm 5 mps 747 mmHg 72%
    12:00 +6°C° 0 mm 5 mps 747 mmHg 69%
    13:00 +7°C° 0 mm 6 mps 747 mmHg 65%
    14:00 +8°C° 0 mm 6 mps 747 mmHg 63%
    15:00 +8°C° 0 mm 5 mps 747 mmHg 67%
    16:00 +7°C° 0 mm 5 mps 746 mmHg 72%
    17:00 +7°C° 0 mm 5 mps 746 mmHg 77%
    18:00 +7°C° 0.1 mm 5 mps 746 mmHg 80%
    19:00 +7°C° 0.1 mm 5 mps 746 mmHg 83%
    20:00 +7°C° 0.1 mm 6 mps 746 mmHg 86%
    21:00 +7°C° 0.1 mm 6 mps 745 mmHg 87%
    22:00 +7°C° 0.1 mm 6 mps 745 mmHg 88%
    23:00 +7°C° 0.1 mm 6 mps 745 mmHg 90%

    Tomorrow, 22 March, Friday

    Time Temperature Precipitation Wind Pressure Humidity
    00:00 +5°C° 0.1 mm 6 mps 745 mmHg 90%
    01:00 +5°C° 0.1 mm 7 mps 745 mmHg 90%
    02:00 +5°C° 0.1 mm 7 mps 745 mmHg 90%
    03:00 +5°C° 0 mm 7 mps 745 mmHg 90%
    04:00 +5°C° 0 mm 6 mps 745 mmHg 90%
    05:00 +5°C° 0 mm 6 mps 746 mmHg 91%
    06:00 +5°C° 0 mm 6 mps 746 mmHg 90%
    07:00 +4°C° 0 mm 6 mps 747 mmHg 89%
    08:00 +4°C° 0 mm 6 mps 748 mmHg 88%
    09:00 +4°C° 0 mm 6 mps 749 mmHg 75%
    10:00 +5°C° 0 mm 6 mps 749 mmHg 61%
    11:00 +5°C° 0 mm 6 mps 750 mmHg 47%
    12:00 +5°C° 0 mm 6 mps 750 mmHg 44%
    13:00 +5°C° 0 mm 6 mps 750 mmHg 41%
    14:00 +7°C° 0 mm 5 mps 751 mmHg 38%
    15:00 +7°C° 0 mm 5 mps 751 mmHg 39%
    16:00 +6°C° 0 mm 5 mps 751 mmHg 40%
    17:00 +6°C° 0 mm 5 mps 751 mmHg 41%
    18:00 +5°C° 0 mm 4 mps 750 mmHg 47%
    19:00 +4°C° 0 mm 3 mps 750 mmHg 52%
    20:00 +3°C° 0 mm 2 mps 750 mmHg 58%
    21:00 +3°C° 0 mm 2 mps 750 mmHg 60%
    22:00 +2°C° 0 mm 2 mps 750 mmHg 62%
    23:00 +3°C° 0 mm 1 mps 750 mmHg 64%

    Day after tomorrow, 23 March, Saturday

    Time Temperature Precipitation Wind Pressure Humidity
    00:00 +2°C° 0 mm 1 mps 750 mmHg 64%
    01:00 +2°C° 0 mm 1 mps 750 mmHg 64%
    02:00 +1°C° 0 mm 0 mps 750 mmHg 65%
    03:00 +2°C° 0 mm 1 mps 750 mmHg 64%
    04:00 +2°C° 0 mm 1 mps 749 mmHg 62%
    05:00 -1°C° 0 mm 2 mps 749 mmHg 61%
    06:00 +1°C° 0 mm 2 mps 749 mmHg 60%
    07:00 0°C° 0 mm 3 mps 748 mmHg 59%
    08:00 +1°C° 0 mm 3 mps 748 mmHg 58%
    09:00 +3°C° 0 mm 3 mps 748 mmHg 54%
    10:00 +5°C° 0 mm 4 mps 747 mmHg 51%
    11:00 +6°C° 0 mm 4 mps 747 mmHg 47%
    12:00 +7°C° 0 mm 5 mps 746 mmHg 47%
    13:00 +9°C° 0 mm 5 mps 746 mmHg 47%
    14:00 +10°C° 0 mm 5 mps 745 mmHg 47%
    15:00 +10°C° 0 mm 5 mps 745 mmHg 51%
    16:00 +10°C° 0 mm 5 mps 744 mmHg 56%
    17:00 +12°C° 0 mm 4 mps 744 mmHg 60%
    18:00 +11°C° 0.1 mm 4 mps 743 mmHg 67%
    19:00 +10°C° 0.1 mm 4 mps 743 mmHg 75%
    20:00 +8°C° 0.1 mm 4 mps 743 mmHg 82%
    21:00 +7°C° 0.1 mm 4 mps 743 mmHg 86%
    22:00 +6°C° 0.1 mm 5 mps 743 mmHg 89%
    23:00 +5°C° 0.1 mm 5 mps 743 mmHg 92%

    24 March, Sunday

    Time Temperature Precipitation Wind Pressure Humidity
    00:00 +3°C° 0 mm 5 mps 743 mmHg 90%
    01:00 +3°C° 0 mm 5 mps 743 mmHg 89%
    02:00 +2°C° 0 mm 5 mps 743 mmHg 87%
    03:00 +1°C° 0 mm 4 mps 743 mmHg 84%
    04:00 0°C° 0 mm 4 mps 743 mmHg 82%
    05:00 0°C° 0 mm 4 mps 743 mmHg 79%
    06:00 0°C° 0 mm 4 mps 744 mmHg 79%
    07:00 0°C° 0 mm 4 mps 744 mmHg 78%
    08:00 0°C° 0 mm 4 mps 744 mmHg 77%
    09:00 +1°C° 0 mm 5 mps 744 mmHg 71%
    10:00 +2°C° 0 mm 5 mps 744 mmHg 65%
    11:00 +3°C° 0 mm 5 mps 744 mmHg 60%
    12:00 +4°C° 0 mm 6 mps 744 mmHg 57%
    13:00 +4°C° 0 mm 6 mps 744 mmHg 54%
    14:00 +5°C° 0 mm 7 mps 744 mmHg 51%
    15:00 +4°C° 0 mm 6 mps 744 mmHg 53%
    16:00 +3°C° 0 mm 6 mps 744 mmHg 55%
    17:00 +3°C° 0 mm 6 mps 744 mmHg 58%
    18:00 +2°C° 0 mm 6 mps 744 mmHg 64%
    19:00 +1°C° 0 mm 5 mps 744 mmHg 70%
    20:00 0°C° 0 mm 4 mps 744 mmHg 75%
    21:00 -1°C° 0 mm 4 mps 744 mmHg 80%
    22:00 -1°C° 0 mm 3 mps 744 mmHg 84%
    23:00 -1°C° 0 mm 3 mps 744 mmHg 88%

    25 March, Monday

    Time Temperature Precipitation Wind Pressure Humidity
    00:00 -1°C° 0 mm 3 mps 743 mmHg 90%
    01:00 -2°C° 0 mm 3 mps 743 mmHg 92%
    02:00 -2°C° 0 mm 3 mps 743 mmHg 93%
    03:00 -2°C° 0 mm 3 mps 742 mmHg 94%
    04:00 -2°C° 0 mm 3 mps 742 mmHg 94%
    05:00 -1°C° 0 mm 3 mps 741 mmHg 94%
    06:00 -2°C° 0 mm 4 mps 741 mmHg 91%
    07:00 -1°C° 0 mm 4 mps 741 mmHg 88%
    08:00 -1°C° 0 mm 5 mps 740 mmHg 85%
    09:00 0°C° 0.1 mm 5 mps 740 mmHg 77%
    10:00 +2°C° 0.1 mm 6 mps 739 mmHg 70%
    11:00 +3°C° 0.1 mm 6 mps 738 mmHg 62%
    12:00 +2°C° 0.6 mm 7 mps 738 mmHg 68%
    13:00 +2°C° 0.6 mm 7 mps 737 mmHg 74%
    14:00 0°C° 0.6 mm 7 mps 736 mmHg 79%
    15:00 0°C° 0.4 mm 7 mps 736 mmHg 78%
    16:00 +1°C° 0.4 mm 6 mps 735 mmHg 77%
    17:00 +1°C° 0.4 mm 5 mps 735 mmHg 76%
    18:00 0°C° 0 mm 4 mps 735 mmHg 79%
    19:00 -1°C° 0 mm 4 mps 735 mmHg 82%
    20:00 -1°C° 0 mm 3 mps 735 mmHg 86%
    21:00 -1°C° 0 mm 3 mps 735 mmHg 87%
    22:00 -1°C° 0 mm 3 mps 736 mmHg 88%
    23:00 -2°C° 0 mm 3 mps 736 mmHg 89%

    26 March, Tuesday

    Time Temperature Precipitation Wind Pressure Humidity
    00:00 -2°C° 0 mm 3 mps 736 mmHg 90%
    01:00 -2°C° 0 mm 3 mps 737 mmHg 91%
    02:00 -4°C° 0 mm 3 mps 737 mmHg 92%
    03:00 -4°C° 0 mm 3 mps 738 mmHg 93%
    04:00 -4°C° 0 mm 3 mps 739 mmHg 93%
    05:00 -4°C° 0 mm 3 mps 739 mmHg 94%
    06:00 -3°C° 0 mm 4 mps 740 mmHg 92%
    07:00 -2°C° 0 mm 4 mps 741 mmHg 91%
    08:00 -1°C° 0 mm 5 mps 742 mmHg 90%
    09:00 0°C° 0 mm 5 mps 743 mmHg 83%
    10:00 +1°C° 0 mm 5 mps 743 mmHg 77%
    11:00 +3°C° 0 mm 4 mps 744 mmHg 71%
    12:00 +3°C° 0 mm 5 mps 744 mmHg 67%
    13:00 +5°C° 0 mm 5 mps 744 mmHg 63%
    14:00 +5°C° 0 mm 5 mps 744 mmHg 59%
    15:00 +3°C° 0 mm 6 mps 744 mmHg 62%
    16:00 +3°C° 0 mm 6 mps 744 mmHg 66%
    17:00 +2°C° 0 mm 7 mps 744 mmHg 69%
    18:00 +1°C° 0 mm 6 mps 744 mmHg 74%
    19:00 0°C° 0 mm 5 mps 744 mmHg 79%
    20:00 -1°C° 0 mm 4 mps 744 mmHg 84%
    21:00 -1°C° 0 mm 5 mps 744 mmHg 83%
    22:00 -1°C° 0 mm 5 mps 744 mmHg 81%
    23:00 -1°C° 0 mm 5 mps 743 mmHg 80%
    Show more